Location: ????
(30.2663°N, 31.2484°E)
Time: 12:54:31
(UTC+00:00)

Cosmos 44 Rocket - Pass Details

Date: 27 September 2022
Orbit: 656 x 733 km, 65.1° (Epoch: 26 November)

Event Time Altitude Azimuth Distance (km) Brightness Sun altitude
Exits shadow 02:53:15 12° 230° (SW) 1,973 5.2 -12.2°
Maximum altitude 02:57:25 42° 300° (WNW) 934 3.6 -11.3°
Drops below altitude 10° 03:01:52 10° 12° (NNE) 2,068 6.0 -10.4°
Sets 03:04:17 0° 19° (NNE) 2,981 6.9 -9.8°
